Météo par heure à Jurgow

Ce jour, 20 Juin, Dimanche

Heure Température Précipitation Vent Pression Humidité
00:00 +14°C° 0.1 mm 0 m/s 690 mmHg 91%
01:00 +14°C° 0.1 mm 0 m/s 690 mmHg 90%
02:00 +13°C° 0 mm 0 m/s 690 mmHg 90%
03:00 +14°C° 0 mm 1 m/s 689 mmHg 90%
04:00 +14°C° 0 mm 1 m/s 689 mmHg 90%
05:00 +16°C° 0 mm 1 m/s 689 mmHg 83%
06:00 +19°C° 0 mm 1 m/s 690 mmHg 76%
07:00 +21°C° 0 mm 1 m/s 690 mmHg 69%
08:00 +23°C° 0 mm 1 m/s 690 mmHg 62%
09:00 +24°C° 0 mm 1 m/s 690 mmHg 55%
10:00 +26°C° 0 mm 1 m/s 691 mmHg 49%
11:00 +26°C° 0.1 mm 1 m/s 691 mmHg 46%
12:00 +27°C° 0.1 mm 1 m/s 690 mmHg 44%
13:00 +28°C° 0.1 mm 1 m/s 690 mmHg 42%
14:00 +27°C° 0 mm 1 m/s 690 mmHg 44%
15:00 +27°C° 0 mm 2 m/s 690 mmHg 46%
16:00 +27°C° 0 mm 2 m/s 690 mmHg 48%
17:00 +25°C° 0 mm 2 m/s 689 mmHg 59%
18:00 +23°C° 0 mm 1 m/s 689 mmHg 70%
19:00 +21°C° 0 mm 1 m/s 688 mmHg 81%
20:00 +20°C° 0 mm 1 m/s 688 mmHg 84%
21:00 +19°C° 0 mm 1 m/s 688 mmHg 87%
22:00 +16°C° 0 mm 1 m/s 688 mmHg 90%
23:00 +16°C° 0 mm 1 m/s 688 mmHg 90%

Demain, 21 Juin, Lundi

Heure Température Précipitation Vent Pression Humidité
00:00 +16°C° 0 mm 1 m/s 687 mmHg 90%
01:00 +16°C° 0 mm 1 m/s 687 mmHg 90%
02:00 +15°C° 0 mm 1 m/s 687 mmHg 89%
03:00 +15°C° 0 mm 1 m/s 687 mmHg 88%
04:00 +15°C° 0 mm 1 m/s 686 mmHg 87%
05:00 +18°C° 0 mm 1 m/s 687 mmHg 80%
06:00 +21°C° 0 mm 1 m/s 687 mmHg 72%
07:00 +21°C° 0 mm 0 m/s 687 mmHg 65%
08:00 +24°C° 0 mm 1 m/s 687 mmHg 59%
09:00 +26°C° 0 mm 1 m/s 688 mmHg 53%
10:00 +28°C° 0 mm 1 m/s 688 mmHg 47%
11:00 +28°C° 0 mm 1 m/s 687 mmHg 48%
12:00 +28°C° 0 mm 1 m/s 687 mmHg 48%
13:00 +28°C° 0 mm 1 m/s 687 mmHg 49%
14:00 +26°C° 0.2 mm 1 m/s 687 mmHg 57%
15:00 +24°C° 0.2 mm 1 m/s 687 mmHg 66%
16:00 +23°C° 0.2 mm 1 m/s 686 mmHg 75%
17:00 +22°C° 0.4 mm 1 m/s 686 mmHg 78%
18:00 +21°C° 0.4 mm 1 m/s 686 mmHg 82%
19:00 +19°C° 0.4 mm 2 m/s 686 mmHg 86%
20:00 +20°C° 0.1 mm 1 m/s 686 mmHg 87%
21:00 +19°C° 0.1 mm 1 m/s 686 mmHg 88%
22:00 +18°C° 0.1 mm 1 m/s 686 mmHg 90%
23:00 +18°C° 0.4 mm 1 m/s 686 mmHg 91%

Après-demain, 22 Juin, Mardi

Heure Température Précipitation Vent Pression Humidité
00:00 +18°C° 0.4 mm 1 m/s 686 mmHg 92%
01:00 +16°C° 0.4 mm 1 m/s 686 mmHg 93%
02:00 +16°C° 1.1 mm 1 m/s 686 mmHg 94%
03:00 +16°C° 1.1 mm 1 m/s 686 mmHg 96%
04:00 +16°C° 1.1 mm 1 m/s 686 mmHg 97%
05:00 +18°C° 0.3 mm 1 m/s 686 mmHg 95%
06:00 +16°C° 0.3 mm 0 m/s 687 mmHg 94%
07:00 +17°C° 0.3 mm 0 m/s 687 mmHg 93%
08:00 +17°C° 0.5 mm 0 m/s 687 mmHg 92%
09:00 +18°C° 0.5 mm 0 m/s 688 mmHg 91%
10:00 +20°C° 0.5 mm 1 m/s 688 mmHg 90%
11:00 +21°C° 0.6 mm 1 m/s 688 mmHg 88%
12:00 +21°C° 0.6 mm 1 m/s 689 mmHg 86%
13:00 +22°C° 0.6 mm 1 m/s 689 mmHg 84%
14:00 +22°C° 0.6 mm 1 m/s 689 mmHg 82%
15:00 +23°C° 0.6 mm 1 m/s 689 mmHg 80%
16:00 +21°C° 0.6 mm 0 m/s 689 mmHg 78%
17:00 +20°C° 0.2 mm 0 m/s 689 mmHg 82%
18:00 +21°C° 0.2 mm 1 m/s 689 mmHg 87%
19:00 +20°C° 0.2 mm 1 m/s 689 mmHg 91%
20:00 +19°C° 0 mm 1 m/s 689 mmHg 92%
21:00 +19°C° 0 mm 1 m/s 689 mmHg 93%
22:00 +18°C° 0 mm 1 m/s 689 mmHg 94%
23:00 +18°C° 0 mm 1 m/s 689 mmHg 94%

23 Juin, Mercredi

Heure Température Précipitation Vent Pression Humidité
00:00 +16°C° 0 mm 1 m/s 689 mmHg 94%
01:00 +16°C° 0 mm 1 m/s 689 mmHg 94%
02:00 +16°C° 0 mm 1 m/s 689 mmHg 94%
03:00 +16°C° 0 mm 1 m/s 689 mmHg 94%
04:00 +16°C° 0 mm 1 m/s 689 mmHg 94%
05:00 +19°C° 0 mm 1 m/s 689 mmHg 88%
06:00 +21°C° 0 mm 1 m/s 690 mmHg 83%
07:00 +21°C° 0 mm 0 m/s 690 mmHg 78%
08:00 +22°C° 0.1 mm 0 m/s 690 mmHg 69%
09:00 +26°C° 0.1 mm 1 m/s 691 mmHg 61%
10:00 +28°C° 0.1 mm 1 m/s 691 mmHg 53%
11:00 +28°C° 0.1 mm 1 m/s 691 mmHg 52%
12:00 +29°C° 0.1 mm 1 m/s 691 mmHg 51%
13:00 +29°C° 0.1 mm 1 m/s 691 mmHg 50%
14:00 +27°C° 0.7 mm 1 m/s 691 mmHg 60%
15:00 +26°C° 0.7 mm 2 m/s 692 mmHg 70%
16:00 +24°C° 0.7 mm 2 m/s 692 mmHg 80%
17:00 +23°C° 0.7 mm 1 m/s 692 mmHg 83%
18:00 +22°C° 0.7 mm 1 m/s 692 mmHg 86%
19:00 +21°C° 0.7 mm 1 m/s 692 mmHg 88%
20:00 +20°C° 0 mm 1 m/s 692 mmHg 90%
21:00 +19°C° 0 mm 1 m/s 693 mmHg 92%
22:00 +18°C° 0 mm 1 m/s 693 mmHg 94%
23:00 +18°C° 0 mm 1 m/s 692 mmHg 94%

24 Juin, Jeudi

Heure Température Précipitation Vent Pression Humidité
00:00 +16°C° 0 mm 1 m/s 692 mmHg 95%
01:00 +15°C° 0 mm 0 m/s 692 mmHg 95%
02:00 +16°C° 0 mm 1 m/s 692 mmHg 95%
03:00 +16°C° 0 mm 1 m/s 692 mmHg 95%
04:00 +16°C° 0 mm 1 m/s 692 mmHg 96%
05:00 +18°C° 0 mm 1 m/s 692 mmHg 93%
06:00 +19°C° 0 mm 1 m/s 692 mmHg 91%
07:00 +20°C° 0 mm 1 m/s 692 mmHg 89%
08:00 +23°C° 0 mm 2 m/s 692 mmHg 77%
09:00 +25°C° 0 mm 2 m/s 692 mmHg 65%
10:00 +28°C° 0 mm 2 m/s 692 mmHg 53%
11:00 +29°C° 0 mm 3 m/s 692 mmHg 47%
12:00 +30°C° 0 mm 4 m/s 692 mmHg 41%
13:00 +33°C° 0 mm 4 m/s 692 mmHg 35%
14:00 +32°C° 0 mm 4 m/s 692 mmHg 39%
15:00 +30°C° 0 mm 3 m/s 691 mmHg 43%
16:00 +30°C° 0 mm 3 m/s 691 mmHg 47%
17:00 +25°C° 3.5 mm 2 m/s 691 mmHg 62%
18:00 +20°C° 3.5 mm 2 m/s 691 mmHg 78%
19:00 +16°C° 3.5 mm 2 m/s 691 mmHg 94%
20:00 +16°C° 0.4 mm 2 m/s 691 mmHg 94%
21:00 +15°C° 0.4 mm 1 m/s 691 mmHg 95%
22:00 +15°C° 0.4 mm 1 m/s 691 mmHg 96%
23:00 +15°C° 0.1 mm 1 m/s 691 mmHg 95%

25 Juin, Vendredi

Heure Température Précipitation Vent Pression Humidité
00:00 +15°C° 0.1 mm 1 m/s 690 mmHg 94%
01:00 +15°C° 0.1 mm 1 m/s 690 mmHg 93%
02:00 +14°C° 0 mm 1 m/s 690 mmHg 94%
03:00 +14°C° 0 mm 1 m/s 690 mmHg 95%
04:00 +14°C° 0 mm 1 m/s 690 mmHg 96%
05:00 +15°C° 0 mm 1 m/s 691 mmHg 94%
06:00 +16°C° 0 mm 1 m/s 691 mmHg 92%
07:00 +18°C° 0 mm 1 m/s 691 mmHg 89%
08:00 +19°C° 0 mm 1 m/s 691 mmHg 88%
09:00 +19°C° 0 mm 1 m/s 691 mmHg 87%
10:00 +18°C° 0 mm 2 m/s 692 mmHg 86%
11:00 +19°C° 0.1 mm 1 m/s 692 mmHg 84%
12:00 +19°C° 0.1 mm 1 m/s 691 mmHg 83%
13:00 +19°C° 0.1 mm 1 m/s 691 mmHg 82%
14:00 +20°C° 0.2 mm 1 m/s 691 mmHg 81%
15:00 +19°C° 0.2 mm 2 m/s 691 mmHg 79%
16:00 +19°C° 0.2 mm 2 m/s 691 mmHg 78%
17:00 +19°C° 1.7 mm 1 m/s 690 mmHg 85%
18:00 +18°C° 1.7 mm 1 m/s 690 mmHg 91%
19:00 +16°C° 1.7 mm 1 m/s 689 mmHg 98%
20:00 +16°C° 2.6 mm 1 m/s 689 mmHg 98%
21:00 +15°C° 2.6 mm 1 m/s 689 mmHg 98%
22:00 +15°C° 2.6 mm 1 m/s 689 mmHg 99%
23:00 +15°C° 1.8 mm 1 m/s 689 mmHg 99%
Voir plus

Nous avons besoin de votre consentement

Meteoprog et ses fournisseurs de services peuvent stocker et accéder à des données personnelles telles que des cookies, des identifiants d'appareils ou d'autres technologies similaires sur votre appareil et traiter ces données pour personnaliser le contenu et les publicités, ainsi que pour fournir des fonctionnalités de médias sociaux et analyser le trafic.

  • Stocker et/ou accéder à des informations sur votre appareil

    Des cookies, des identifiants d'appareils ou d'autres informations peuvent être stockés ou accessibles sur votre appareil aux fins indiquées ci-dessus.

  • Annonces et contenus personnalisés, mesure des annonces et des contenus, connaissance de l'audience et développement de produits

    Les annonces et le contenu peuvent être personnalisés en fonction d'un profil. D'autres données peuvent être ajoutées pour mieux personnaliser les annonces et le contenu. Les performances des publicités et du contenu peuvent être mesurées. Il est possible d'obtenir des informations sur le public qui a vu les publicités et le contenu. Ces données peuvent être utilisées pour développer ou améliorer l'expérience de l'utilisateur, les systèmes et les logiciels.

En cliquant sur "J'accepte", vous autorisez l'utilisation de cookies, des identifiants d'appareils, des balises web ou d'autres technologies similaires. Vos paramètres peuvent être modifiés dans le navigateur de votre appareil.

Dans certains cas, des intérêts légitimes peuvent être invoqués plutôt qu'un consentement. Vous pouvez en savoir plus à ce sujet dans notre Politique de confidentialité et de cookies.